{"data":{"norad_id":53287,"intl_designator":"2022-086AX","name":"STARLINK-4107","alt_names":[],"object_type":"PAYLOAD","status":"ACTIVE","operator":null,"country":"US","launch_date":"2022-07-24","launch_site_code":"AFETR","launch_vehicle":null,"mission":null,"orbit_class":"UNKNOWN","rcs_meters":null,"size_class":null,"mass_kg":null,"dimensions":null,"purposes":["comms"],"wikipedia_slug":null,"has_3d_model":false,"image_url":null,"decayed_at":null,"tle_current":{"epoch":"2026-09-19T22:20:30.183360Z","epoch_age_seconds":124612,"freshness":"FRESH","line1":"1 53287U 22086AX  26262.93090490  .00009411  00000+0  29616-3 0  9996","line2":"2 53287  53.1617  16.7232 0001242  89.8320 270.2824 15.33651842230727","mean_motion":15.33651842,"eccentricity":0.0001242,"inclination_deg":53.1617,"raan_deg":16.7232,"arg_perigee_deg":89.832,"mean_anomaly_deg":270.2824,"bstar":0.00029616,"rev_number":23072,"period_min":93.893539626447,"perigee_km":464.07791872845,"apogee_km":465.77773603157,"semimajor_km":6843.06482738,"source":"CELESTRAK","updated_at":"2026-09-20T09:00:40.220766Z"}}}